Location: Arrington
(35.8681°N, 86.7092°W)
Time: 06:07:38
(UTC+00:00)

NOSS 2-2 (C) - Pass Details

Date: 23 November 2019
Orbit: 487 x 1722 km, 63.3° (Epoch: 09 December)

Event Time Altitude Azimuth Distance (km) Brightness Sun altitude
Rises 00:12:06 0° 204° (SSW) 2,613 7.3 -19.4°
Reaches altitude 10° 00:14:16 10° 202° (SSW) 1,682 6.2 -19.8°
Enters shadow 00:17:47 66° 127° (SE) 533 3.0 -20.5°
